User: anonymous   Login
Location: Unspecified
(0.0000°N, 0.0000°E)
Time: 17:22:00
(UTC+02:00)
Language:

Cosmos 2219 - Orbit

View from above orbital plane
View from above orbital plane
View from above satellite
View from above satellite

Ground track
Ground track

The orbit data is extracted from the following two-line orbital elements,

1 22219U 92076A   17086.89407785 +.00000144 +00000-0 +10115-3 0  9990
2 22219 071.0612 007.5253 0017890 158.7853 201.4015 14.13600272256405
Epoch (UTC): 27 March 2017 21:27:28
Eccentricity: 0.0017890
inclination: 71.0612°
perigee height: 834 km
apogee height: 860 km
right ascension of ascending node: 7.5253°
argument of perigee: 158.7853°
revolutions per day: 14.13600272
mean anomaly at epoch: 201.4015°
orbit number at epoch: 25640

The dashed part of the orbit path shows where the satellite is in the earth's shadow,  

DLR